Regional Weather Roundup
Issued by NWS

Home | Current Version | Previous Version | Text Only | Print | Product List | Glossary On
Versions: 1 2 3 4 5 6 7 8 9 10 11 12 13 14 15 16 17 18 19 20 21 22 23 24 25 26 27 28 29 30 31 32 33 34 35 36 37 38 39 40 41 42 43 44 45 46 47 48 49 50
000
ASUS43 KDTX 280610
RWRMI
MICHIGAN HOURLY REGIONAL WEATHER ROUNDUP
NATIONAL WEATHER SERVICE DETROIT/PONTIAC MI
100 AM EST SUN DEC 28 2014

NOTE: "FAIR" INDICATES FEW OR NO CLOUDS BELOW 12,000 FEET WITH NO
SIGNIFICANT WEATHER AND/OR OBSTRUCTION TO VISIBILITY.

MIZ047>049-052>055-059>063-066>070-074>076-081>083-280700-
SOUTHEAST LOWER MICHIGAN

CITY           SKY/WX    TMP DP  RH WIND       PRES   REMARKS
ADRIAN         CLOUDY    36  30  79 NW13G22   30.02S
6HR MIN TEMP:  36; 6HR MAX TEMP:  47; 6HR PCP: TRACE;

ALMA           CLOUDY    35  32  91 W7        29.99S
ANN ARBOR      CLOUDY    36  31  82 W13G18    29.99S
BAD AXE        CLOUDY    34  33  93 NW7       29.95R
DETROIT CITY   CLOUDY    40  31  70 NW10      29.98S
6HR MIN TEMP:  40; 6HR MAX TEMP:  50; 6HR PCP:  0.01;

DETROIT        CLOUDY    37  31  78 W15G22    29.99F
6HR MIN TEMP:  37; 6HR MAX TEMP:  48; 6HR PCP: TRACE;

FLINT          CLOUDY    38  30  73 W12       29.98S
6HR MIN TEMP:  37; 6HR MAX TEMP:  45;

GROSSE ILE     CLOUDY    39  34  81 W14       29.98S
HILLSDALE      CLOUDY    35  32  89 W10       29.99F
6HR MIN TEMP:  35; 6HR MAX TEMP:  44;

HOWELL         CLOUDY    34  30  85 W9        29.97F
6HR MIN TEMP:  34; 6HR MAX TEMP:  41;


CITY           SKY/WX    TMP DP  RH WIND       PRES   REMARKS
JACKSON        CLOUDY    35  30  82 NW12      29.99F
6HR MIN TEMP:  35; 6HR MAX TEMP:  41; 6HR PCP: TRACE;

LAMBERTVILLE   CLOUDY    37  34  87 W9        30.01F
LANSING        CLOUDY    35  29  78 W10       29.99F
6HR MIN TEMP:  35; 6HR MAX TEMP:  39;

LAPEER         NOT AVBL
MASON          CLOUDY    34  28  80 W5        29.99F
MONROE         CLOUDY    37  34  87 W12       29.98F
MT. CLEMENS    CLOUDY    39  34  81 W13       29.95F
6HR MIN TEMP:  38; 6HR MAX TEMP:  48; 6HR PCP:  0.01;

PONTIAC        CLOUDY    36  30  79 W17       29.95F
6HR MIN TEMP:  36; 6HR MAX TEMP:  48;

PORT HOPE        N/A     36  29  75 NW12G18   29.92S
6HR MIN TEMP:  36; 6HR MAX TEMP:  48;

PORT HURON     CLOUDY    37  32  81 W7        29.96S
TRI CITIES     CLOUDY    37  32  82 W6        29.98R
6HR MIN TEMP:  36; 6HR MAX TEMP:  40; 6HR PCP: TRACE;

YPSILANTI      CLOUDY    40  30  67 W14       29.99F
6HR MIN TEMP:  40; 6HR MAX TEMP:  50; 6HR PCP:  0.01;

$$
MIZ043>046-050>051-056>058-064>065-071>073-077>080-280700-
SOUTHWEST LOWER MICHIGAN

CITY           SKY/WX    TMP DP  RH WIND       PRES   REMARKS
BATTLE CREEK   CLOUDY    35  29  78 W7        30.01F
6HR MIN TEMP:  35; 6HR MAX TEMP:  39;

BENTON HARBOR  CLOUDY    35  27  72 NW9G17    30.05F
6HR MIN TEMP:  35; 6HR MAX TEMP:  36;

BIG RAPIDS     CLOUDY    33  32  96 NW6       29.97F
6HR MIN TEMP:  33; 6HR MAX TEMP:  37;

COLDWATER      CLOUDY    34  30  85 W12G18    30.02F
6HR MIN TEMP:  34; 6HR MAX TEMP:  40;

HOLLAND        CLOUDY    38  31  76 W10       30.03F
6HR MIN TEMP:  38; 6HR MAX TEMP:  39;

GRAND RAPIDS   CLOUDY    35  32  88 W12       30.00F
6HR MIN TEMP:  34; 6HR MAX TEMP:  37; 6HR PCP: TRACE;

KALAMAZOO      CLOUDY    36  28  73 W10       30.02F
6HR MIN TEMP:  35; 6HR MAX TEMP:  38;

MARSHALL       CLOUDY    34  29  82 W7        30.00F
MUSKEGON       CLOUDY    36  31  82 NW10G21   30.02F
6HR MIN TEMP:  34; 6HR MAX TEMP:  38; 6HR PCP:  0.06;

$$
MIZ016>042-280700-
NORTHERN LOWER MICHIGAN

CITY           SKY/WX    TMP DP  RH WIND       PRES   REMARKS
ALPENA         CLOUDY    31  23  72 W9        29.94F
6HR MIN TEMP:  30; 6HR MAX TEMP:  41; 6HR PCP:  0.01;

BEAVER ISLAND  CLOUDY    31  22  68 W9        29.95F
6HR MIN TEMP:  30; 6HR MAX TEMP:  32;

BELLAIRE       CLOUDY    33  28  80 W3        29.97S
6HR MIN TEMP:  32; 6HR MAX TEMP:  34;

CADILLAC       CLOUDY    31  28  91 W5        29.94F
CHARLEVOIX     CLOUDY    32  25  73 W17G23    29.98F
6HR MIN TEMP:  32; 6HR MAX TEMP:  33;

FRANKFORT      CLOUDY    33  29  86 W12G18    29.99S
GAYLORD        CLOUDY    29  24  82 NW6       29.91F
6HR MIN TEMP:  28; 6HR MAX TEMP:  31; 6HR PCP:  0.02;

GRAYLING       CLOUDY    31  29  93 W3        29.95S
6HR MIN TEMP:  30; 6HR MAX TEMP:  36;

HARBOR SPRINGS CLOUDY    32  24  72 W6        29.94F
HOUGHTON LAKE  CLOUDY    30  27  88 NW6       29.95S
6HR MIN TEMP:  30; 6HR MAX TEMP:  36; 6HR PCP: TRACE;

MANISTEE       CLOUDY    34  27  75 W18       30.01R
OSCODA         CLOUDY    32  27  80 NW9       29.94S
PELLSTON       CLOUDY    31  23  72 NW10      29.94F
6HR MIN TEMP:  31; 6HR MAX TEMP:  33; 6HR PCP: TRACE;

TRAVERSE CITY  CLOUDY    33  30  88 SW3       29.97F
6HR MIN TEMP:  33; 6HR MAX TEMP:  35; 6HR PCP: TRACE;

$$
MIZ007>008-015-280700-
EASTERN UPPER MICHIGAN

CITY           SKY/WX    TMP DP  RH WIND       PRES   REMARKS
KINROSS        CLOUDY    28  27  93 W13       29.90S
6HR MIN TEMP:  28; 6HR MAX TEMP:  30;

MACKINAC ISLAN CLOUDY    30  26  83 W12G23    29.93S
6HR MIN TEMP:  29; 6HR MAX TEMP:  32;

NEWBERRY       CLOUDY    27  24  91 W9        29.92S
6HR MIN TEMP:  27; 6HR MAX TEMP:  29;

S. S. MARIE    LGT SNOW  29  24  82 W13G22    29.88F
6HR MIN TEMP:  29; 6HR MAX TEMP:  33; 6HR PCP: TRACE;

$$
MIZ004>006-011>014-085-280700-
CENTRAL UPPER MICHIGAN

CITY           SKY/WX    TMP DP  RH WIND       PRES   REMARKS
MANISTIQUE     MOCLDY    27  23  87 NW12G17   29.96S
6HR MIN TEMP:  26; 6HR MAX TEMP:  31;

ESCANABA       CLEAR     25  18  74 W10       29.98F
6HR MIN TEMP:  25; 6HR MAX TEMP:  32;

MENOMINEE      CLEAR     25  18  74 NW7       30.02S
6HR MIN TEMP:  25; 6HR MAX TEMP:  32;

SAWYER-GWINN   CLEAR     18  13  82 W8        29.93F
$$
MIZ001>003-009>011-084-280700-
WESTERN UPPER MICHIGAN

CITY           SKY/WX    TMP DP  RH WIND       PRES   REMARKS
IRON MOUNTAIN    N/A     18  13  80 W5        29.97F
6HR MIN TEMP:  17; 6HR MAX TEMP:  28; 6HR PCP: TRACE;

HOUGHTON       CLOUDY    22  15  75 W8        29.91F
6HR MIN TEMP:  20; 6HR MAX TEMP:  26;

COPPER HARBOR    N/A     27  17  66 N14G24    29.93F
6HR MIN TEMP:  24; 6HR MAX TEMP:  29;

IRONWOOD       CLOUDY    18  12  79 W9        29.95S
6HR MIN TEMP:  10; 6HR MAX TEMP:  19;

$$

ABBREVIATIONS USED IN REMARKS
   TC - TEMPERATURE IN CELSIUS
  WCI - WIND CHILL INDEX
   HX - HEAT INDEX
  VSB - VISIBILITY



USA.gov is the U.S. government's official web portal to all federal, state and local government web resources and services.